Погода в Буштени

Румыния     45°24′31″N   25°32′06″E
темп.,
°C
ветер,
м/с
пор.,
м/с
влажн.,
%
обл.,
%
осадки,
мм/ч
давл.,
гПа
погр.,
м
13 мая, чт
чт1300:00+8ю4690100 0.1 1008398
03:00+7ю3690100 0.3 1008349
06:00+6ю2495100 0.8 1007175
09:00+7ю2396100 4.3 1007219
12:00+8ююз238748 0.2 1006457
15:00+14юз364899 0.3 10041676
18:00+13юз355554 0.0 10041337
21:00+6ююз339076 0.0 100656
14 мая, пт
пт1400:00+7ю3493100 0.5 1006155
03:00+6юз2292100 0.7 100745
06:00+6зсз119489 0.3 100758
09:00+9ссз118288 0.5 1007734
12:00+11ссз127599 0.7 10081021
15:00+9с229398 4.0 1010441
18:00+7юв119679 3.9 1011104
21:00+6юз21959 4.0 101214
15 мая, сб
сб1500:00+5ююз229596 0.0 101336
03:00+5ююз229499 0.0 101330
06:00+5ююз22940 0.0 101321
09:00+11св11710 0.0 1012523
12:00+15св125592 0.3 10111288
15:00+16юз134592 1.6 10102049
18:00+14ююз335395 0.1 10101375
21:00+8ю33866 0.2 101144
16 мая, вс
вс1600:00+7ю3388100 0.0 101241
03:00+9ю2487100 0.3 1011114
06:00+8ююв2390100 0.3 101062
09:00+9ю1296100 2.3 101188
12:00+12ююз137796 1.7 1010824
15:00+13ю248230 3.9 1010929
18:00+9ююв239896 10.4 1009122
21:00+8ю21955 11.8 101015
17 мая, пн
пн1700:00+6ссз119878 0.0 101215
03:00+8ссз129981 0.1 1010134
06:00+7ссв129994 0.0 1011115
09:00+8с239474 0.1 1012410
12:00+14ссз21614 0.1 1011885
15:00+17с234967 0.3 10091927
18:00+15ю136551 0.5 1009694
21:00+10ююз338474 0.6 101043